TimeEST,TemperatureF,Dew PointF,Humidity,Sea Level PressureIn,VisibilityMPH,Wind Direction,Wind SpeedMPH,Gust SpeedMPH,PrecipitationIn,Events,Conditions,WindDirDegrees,DateUTC
12:54 AM,30.2,24.8,80,30.19,10.0,Calm,Calm,-,N/A,,Partly Cloudy,0,2012-11-06 05:54:00
1:54 AM,33.1,25.0,72,30.18,10.0,Calm,Calm,-,N/A,,Partly Cloudy,0,2012-11-06 06:54:00
2:54 AM,28.9,25.0,85,30.19,10.0,Calm,Calm,-,N/A,,Partly Cloudy,0,2012-11-06 07:54:00
3:54 AM,30.0,25.0,82,30.18,10.0,Calm,Calm,-,N/A,,Scattered Clouds,0,2012-11-06 08:54:00
4:54 AM,32.0,24.1,73,30.19,10.0,NNE,3.5,-,N/A,,Scattered Clouds,20,2012-11-06 09:54:00
5:54 AM,33.1,24.1,70,30.19,10.0,NNE,5.8,-,N/A,,Mostly Cloudy,30,2012-11-06 10:54:00
6:54 AM,34.0,23.0,64,30.20,10.0,NE,6.9,-,N/A,,Mostly Cloudy,50,2012-11-06 11:54:00
7:54 AM,35.1,21.9,59,30.21,10.0,NE,8.1,-,N/A,,Scattered Clouds,40,2012-11-06 12:54:00
8:54 AM,37.9,21.9,53,30.22,10.0,ENE,10.4,-,N/A,,Scattered Clouds,70,2012-11-06 13:54:00
9:54 AM,39.9,21.0,47,30.23,10.0,East,10.4,-,N/A,,Scattered Clouds,80,2012-11-06 14:54:00
10:54 AM,43.0,21.9,43,30.21,10.0,Variable,3.5,-,N/A,,Scattered Clouds,0,2012-11-06 15:54:00
11:54 AM,44.1,21.9,42,30.18,10.0,NE,8.1,-,N/A,,Scattered Clouds,40,2012-11-06 16:54:00
12:54 PM,45.0,24.1,44,30.14,10.0,ENE,9.2,-,N/A,,Mostly Cloudy,70,2012-11-06 17:54:00
1:54 PM,44.1,26.1,49,30.11,10.0,ESE,6.9,-,N/A,,Scattered Clouds,110,2012-11-06 18:54:00
2:54 PM,45.0,28.0,52,30.10,10.0,ENE,8.1,-,N/A,,Mostly Cloudy,60,2012-11-06 19:54:00
3:54 PM,43.0,30.0,60,30.10,10.0,East,10.4,-,N/A,,Mostly Cloudy,100,2012-11-06 20:54:00
4:54 PM,42.1,28.9,60,30.10,10.0,ENE,8.1,-,N/A,,Mostly Cloudy,70,2012-11-06 21:54:00
5:54 PM,42.1,28.9,60,30.08,10.0,NE,8.1,-,N/A,,Mostly Cloudy,40,2012-11-06 22:54:00
6:54 PM,42.1,28.0,58,30.07,10.0,NE,8.1,-,N/A,,Overcast,40,2012-11-06 23:54:00
7:54 PM,41.0,27.0,57,30.05,10.0,NNE,5.8,-,N/A,,Overcast,30,2012-11-07 00:54:00
8:54 PM,41.0,27.0,57,30.07,10.0,NE,9.2,-,N/A,,Overcast,40,2012-11-07 01:54:00
9:54 PM,39.9,26.1,58,30.06,10.0,NE,10.4,-,N/A,,Overcast,40,2012-11-07 02:54:00
10:54 PM,39.9,27.0,60,30.04,10.0,NE,11.5,-,N/A,,Overcast,50,2012-11-07 03:54:00
11:54 PM,39.9,27.0,60,30.04,10.0,NE,9.2,-,N/A,,Overcast,50,2012-11-07 04:54:00